Wind_Speed
12 11 10 9 8 8 6 5 3 3 5 5 6 7 5 2 1 4 3 4 3 2 1 1 1 2 2 3 4 4 5 5 6 7 8 8 9 9 10 10 10 10 10 10 10 10 9 8 7
10 8 8 8 6 6 3 2 2 3 3 3 3 4 4 3 2 3 4 4 4 3 3 3 3 3 4 4 4 5 5 5 6 7 7 8 9 9 9 9 10 10 10 10 10 10 9 8 8
8 6 4 4 4 3 2 1 2 3 4 3 2 2 3 3 3 4 4 5 5 5 4 4 4 5 5 5 5 5 6 6 6 7 7 8 9 9 9 9 9 9 10 10 10 10 9 9 8
8 7 4 4 2 2 2 2 1 4 5 5 5 3 3 4 5 5 5 6 6 6 5 5 6 6 6 6 6 6 6 7 7 8 9 9 9 10 10 10 10 10 10 10 10 10 10 9 9
9 8 6 7 7 5 5 5 3 4 7 7 6 5 5 5 6 6 6 6 7 6 6 6 7 7 7 8 8 8 9 9 10 10 11 11 12 12 12 11 11 11 11 11 11 11 11 11 10
11 9 8 10 10 8 7 7 7 8 8 8 8 8 7 6 7 7 7 7 7 7 8 8 8 8 9 10 10 11 12 12 12 13 14 14 14 14 14 13 13 13 13 13 13 13 13 13 12
13 11 9 9 8 6 9 10 9 9 9 10 10 11 10 8 7 8 8 8 8 8 9 9 10 11 11 12 13 13 14 14 15 15 16 16 16 16 16 16 16 16 15 15 15 16 16 16 15
15 15 12 12 9 6 8 9 10 10 11 11 12 13 14 11 9 8 9 9 9 9 10 11 11 12 13 14 14 15 15 16 17 17 18 18 18 18 18 18 18 18 18 18 18 18 19 19 19
17 17 16 15 13 8 7 8 12 12 13 13 15 17 18 16 12 10 10 10 10 11 12 12 13 13 14 15 16 16 17 17 18 18 19 19 19 20 20 20 20 20 20 20 20 20 21 21 22
18 18 20 20 17 14 11 11 13 14 14 16 17 18 20 20 15 13 12 13 13 13 13 14 15 15 16 16 17 18 18 18 19 19 20 20 20 21 21 21 22 22 22 22 22 22 23 23 23
20 19 23 25 22 20 17 16 17 17 17 17 19 21 21 21 19 17 16 16 17 17 17 17 17 18 19 19 19 19 19 20 20 21 21 21 21 22 22 22 23 23 23 23 23 23 23 23 23
20 20 24 27 27 26 23 22 21 22 23 23 23 24 24 24 22 20 20 19 20 19 20 20 20 21 21 22 21 21 21 21 21 21 22 22 22 22 22 23 23 23 23 23 23 22 21 21 22
20 21 24 27 29 29 28 27 26 26 27 27 28 28 27 27 25 24 23 22 23 23 22 22 23 23 23 24 24 23 23 22 21 21 22 22 23 23 23 23 23 23 23 22 21 20 19 19 20
20 21 21 22 25 29 30 29 29 28 28 30 30 30 29 28 27 27 27 27 26 26 26 26 28 27 26 26 26 25 24 23 22 22 22 23 23 23 24 23 23 22 22 21 19 19 18 18 18
19 19 18 19 21 23 27 29 28 26 27 28 28 29 29 30 30 30 30 31 30 30 30 29 31 31 30 30 28 27 25 24 24 24 23 23 24 24 23 22 22 21 20 19 17 17 16 15 16
19 17 15 15 17 18 23 25 22 22 24 25 27 28 30 32 32 31 32 33 33 34 33 33 35 35 34 31 30 28 27 25 24 25 25 24 25 24 23 22 21 20 19 18 17 17 15 15 15
17 15 13 12 12 14 17 17 16 19 22 25 28 30 32 34 35 35 36 36 37 36 35 36 38 37 34 31 31 28 26 26 26 26 27 25 25 24 23 22 21 20 19 18 17 16 15 15 14
14 13 11 11 11 13 14 16 18 21 25 27 31 33 34 35 36 37 38 39 39 35 36 36 33 33 31 32 30 27 26 26 27 28 27 25 24 24 24 24 22 21 20 18 17 16 16 15 14
10 10 11 12 12 14 15 17 20 23 27 30 33 35 35 35 36 37 40 40 38 38 36 34 34 34 32 30 28 26 26 27 28 27 26 25 25 25 24 24 23 22 21 20 19 18 18 17 16
9 13 15 16 17 18 19 22 25 27 30 32 35 36 37 37 37 37 38 36 35 37 37 34 33 30 27 25 24 26 27 27 27 27 26 27 27 25 25 24 24 23 22 22 21 20 20 20 19
12 15 17 20 21 22 24 25 27 31 32 34 34 34 33 34 35 34 35 35 36 36 33 32 30 28 27 25 27 27 26 26 28 27 26 26 26 26 26 26 25 24 24 24 23 22 22 22 22
9 13 16 18 22 24 26 28 29 31 31 31 32 32 31 32 32 33 34 33 33 32 33 32 30 28 30 29 27 26 27 27 28 27 27 27 27 26 25 26 26 26 26 26 25 25 24 24 24
8 10 13 15 17 20 21 24 26 28 29 30 31 31 31 32 32 33 34 33 34 33 32 32 31 30 31 30 29 28 28 29 29 29 29 29 28 27 27 27 27 27 28 28 28 28 27 26 26
9 10 11 12 13 15 16 19 20 22 23 25 27 28 29 30 30 32 33 34 35 34 34 34 34 34 33 33 33 33 33 33 33 32 32 31 30 30 29 28 28 29 30 30 31 30 30 29 28
8 9 9 10 11 12 15 17 17 18 18 20 21 22 24 26 28 29 32 34 36 37 38 38 39 38 38 38 39 40 40 39 39 39 38 37 35 34 33 32 32 32 32 33 33 33 33 32 31
8 9 10 11 11 13 15 17 18 20 20 20 21 24 24 25 27 30 33 37 39 41 42 43 45 46 46 47 47 47 47 47 46 46 45 44 42 41 40 38 38 37 36 37 37 37 37 36 34
10 11 13 14 15 16 17 19 19 22 23 24 26 27 28 30 33 36 39 42 43 45 47 49 50 51 51 52 53 53 53 53 53 52 51 50 50 48 47 46 45 44 43 42 42 41 41 40 38
12 13 14 15 16 17 19 21 23 25 26 28 31 32 34 37 40 42 44 46 47 49 51 52 53 54 55 55 56 56 57 57 57 57 57 56 55 54 53 53 52 51 50 48 47 46 45 44 43
12 13 13 15 16 19 22 24 26 29 31 34 36 38 41 43 45 47 49 51 52 53 54 56 57 58 59 60 60 61 61 61 61 61 61 61 60 59 58 57 57 56 55 53 52 50 49 47 46
13 14 14 16 17 21 25 28 30 33 36 39 41 43 45 48 50 52 54 56 57 59 60 61 62 63 64 64 65 65 66 66 66 66 66 66 65 64 63 62 60 59 58 57 56 54 53 51 49
Wind_Direction
129 135 138 135 137 131 112 77 32 323 304 299 293 298 321 344 218 211 209 194 202 209 233 272 312 333 339 341 343 345 347 345 342 340 339 339 341 342 343 345 347 349 351 354 358 359 359 360 5
138 142 148 140 149 148 142 108 10 335 325 312 289 284 300 318 266 219 209 210 219 234 256 273 287 299 307 312 316 320 324 327 327 327 327 328 328 329 329 330 332 334 335 338 341 343 344 345 346
155 157 147 147 162 168 172 205 299 334 346 329 302 283 282 280 258 237 227 229 230 237 253 268 281 291 296 298 299 301 306 309 311 311 312 315 317 318 318 317 319 319 320 322 324 327 329 331 333
184 185 186 212 236 274 305 251 228 330 335 325 306 285 274 269 263 258 253 250 248 252 259 272 284 288 289 289 288 290 294 297 299 299 300 302 305 307 307 306 306 306 307 308 310 311 313 314 316
208 214 226 251 265 291 301 294 262 286 309 308 300 287 277 270 269 269 267 263 264 265 268 276 284 286 287 285 284 284 286 288 289 291 292 293 295 297 297 295 295 295 295 296 297 298 299 299 299
218 223 240 264 273 295 304 290 286 272 287 292 288 283 278 272 273 273 269 266 269 271 277 282 283 286 288 288 287 286 284 284 284 286 288 288 289 289 289 287 286 285 286 285 285 286 286 287 286
219 219 234 252 265 312 318 300 274 270 270 278 284 285 275 261 265 270 268 270 276 278 283 287 288 290 292 292 290 288 287 286 285 285 285 284 284 284 284 283 283 281 281 280 278 277 277 277 277
225 216 219 232 244 296 314 301 280 273 264 272 285 288 278 265 253 257 266 273 278 283 288 292 293 294 295 294 293 290 288 287 286 285 283 282 281 281 282 282 281 282 281 279 277 276 273 272 272
232 221 217 227 238 260 290 290 276 273 274 277 286 287 281 275 263 252 258 269 276 283 289 294 296 297 298 297 295 292 290 288 286 285 282 280 280 281 281 282 282 283 282 281 278 276 274 272 271
237 223 219 230 237 248 256 265 270 272 279 283 292 290 290 291 278 266 262 269 275 282 290 295 297 299 299 297 295 293 291 289 287 285 283 282 281 281 281 282 283 283 284 282 280 278 276 274 272
242 226 222 229 236 241 246 253 259 268 274 280 287 292 297 296 291 283 275 273 276 282 289 293 295 297 297 296 295 295 294 293 290 287 286 285 284 283 282 283 284 286 286 285 283 280 279 277 275
248 235 229 232 239 243 244 249 255 261 269 278 285 290 295 297 294 288 284 280 278 282 288 290 291 294 296 296 296 295 295 293 291 289 288 287 286 285 283 282 283 284 285 284 284 280 281 280 280
254 246 241 240 245 248 250 252 257 263 269 276 281 284 286 290 290 289 286 280 280 281 282 284 288 290 292 293 293 293 292 292 290 288 287 286 285 284 284 283 281 281 281 281 282 280 280 281 280
257 256 254 252 253 252 252 255 258 263 269 272 275 278 282 286 286 286 284 278 277 279 279 281 284 283 284 287 288 288 289 288 287 286 285 283 281 280 281 280 279 279 279 278 277 275 276 277 278
258 260 260 256 252 250 251 254 257 262 265 268 273 277 281 283 284 285 285 282 278 278 279 277 279 279 279 280 280 282 284 284 284 284 283 283 282 281 280 278 278 278 278 277 275 273 272 272 277
257 257 254 254 251 248 249 253 255 258 263 270 274 278 281 282 285 284 287 283 281 277 276 275 277 274 274 274 274 277 281 281 284 283 283 283 282 281 279 278 277 276 276 275 274 273 273 273 276
254 250 243 237 235 234 244 252 252 257 265 270 275 278 280 283 285 287 289 284 284 280 275 274 273 269 269 267 266 267 274 280 283 282 282 284 282 280 279 277 275 274 274 273 271 271 272 273 276
249 243 233 220 221 227 237 250 254 258 264 269 273 276 278 282 286 288 289 289 283 280 279 274 269 263 264 263 258 262 273 277 279 279 279 282 281 278 277 275 271 270 271 270 267 267 268 270 275
235 227 224 219 220 228 233 240 246 252 259 265 271 277 279 282 285 289 292 294 289 288 285 273 272 274 267 260 258 266 275 277 277 279 280 281 281 276 274 272 268 267 266 265 264 265 267 270 273
236 233 226 224 227 230 232 235 240 247 255 262 269 272 278 284 291 293 295 300 299 296 291 289 287 283 280 276 269 269 273 276 280 282 281 279 279 278 274 269 266 264 264 262 262 265 268 270 271
231 238 236 231 233 240 244 247 252 257 261 265 268 272 278 285 291 295 300 303 303 300 299 299 299 292 295 296 293 282 283 281 281 280 279 280 279 278 275 269 265 263 261 261 261 264 268 270 270
249 248 249 246 243 244 251 257 260 265 267 269 271 273 277 282 288 293 296 300 301 303 304 302 302 303 301 300 297 292 287 284 282 280 280 278 276 275 272 266 263 262 260 260 261 263 266 268 271
272 270 266 260 254 255 258 266 269 272 272 273 273 273 275 280 282 287 291 295 299 302 304 303 302 301 299 298 297 292 290 286 285 283 281 277 273 270 269 265 262 261 260 261 261 261 263 266 269
300 290 282 272 268 269 270 280 282 282 282 275 271 273 276 281 281 284 289 293 298 300 301 301 300 298 296 293 292 291 289 285 284 283 281 279 274 271 268 265 263 261 261 261 261 262 263 264 267
308 308 299 284 283 289 290 294 300 300 294 289 287 288 286 287 285 286 290 294 298 300 300 300 299 298 296 293 291 289 288 286 283 282 280 278 275 272 268 266 264 261 260 260 261 262 263 264 265
318 320 318 313 314 311 308 311 313 314 318 316 315 313 308 302 299 297 297 298 300 301 301 300 299 298 296 294 291 289 287 285 283 281 278 276 274 271 269 267 265 264 262 261 260 260 261 263 264
319 313 312 308 313 314 315 318 320 322 322 323 321 317 310 306 305 303 301 300 300 300 299 298 297 295 294 292 291 289 287 285 283 280 278 275 273 271 268 266 265 264 263 261 260 259 260 261 263
312 312 307 308 312 316 319 323 325 324 323 320 317 315 311 308 305 303 302 302 301 299 298 296 295 293 291 289 288 286 284 283 281 279 277 275 273 270 268 266 264 263 262 261 259 258 259 259 261
308 306 304 309 312 317 320 324 325 323 322 320 317 315 312 310 308 307 307 306 304 301 299 297 295 293 291 289 287 285 283 280 278 277 275 273 272 270 267 265 264 262 261 260 258 257 257 258 258
315 312 314 317 317 318 320 322 323 322 320 319 317 316 314 312 312 311 309 307 305 303 302 300 298 296 293 291 288 285 282 279 277 274 272 271 269 268 266 265 263 262 260 259 257 256 255 256 256
Height
5931 5931 5931 5931 5931 5930 5929 5929 5929 5930 5930 5929 5929 5928 5927 5928 5928 5929 5927 5925 5924 5924 5923 5923 5922 5922 5921 5920 5920 5919 5918 5918 5917 5916 5915 5914 5913 5911 5910 5909 5907 5906 5904 5903 5902 5900 5899 5898 5898
5932 5931 5932 5931 5931 5929 5929 5927 5927 5928 5929 5929 5928 5927 5927 5926 5926 5926 5925 5924 5924 5923 5923 5922 5922 5921 5921 5920 5919 5918 5918 5917 5916 5915 5914 5913 5912 5910 5909 5908 5907 5905 5904 5903 5901 5900 5899 5898 5897
5932 5931 5932 5931 5930 5929 5928 5927 5925 5926 5927 5928 5928 5927 5926 5926 5925 5925 5925 5924 5923 5923 5922 5922 5921 5920 5920 5919 5918 5917 5917 5916 5915 5914 5913 5912 5911 5909 5908 5907 5906 5904 5903 5902 5900 5899 5898 5897 5896
5931 5932 5932 5932 5930 5928 5927 5925 5925 5925 5925 5926 5926 5926 5926 5926 5924 5924 5924 5923 5923 5922 5921 5921 5920 5919 5919 5918 5917 5916 5915 5914 5913 5912 5911 5910 5909 5908 5906 5905 5904 5903 5902 5900 5899 5898 5897 5896 5895
5930 5931 5931 5930 5929 5927 5926 5924 5922 5923 5923 5924 5924 5924 5925 5924 5923 5923 5922 5922 5922 5921 5920 5920 5919 5918 5917 5917 5916 5914 5913 5912 5911 5910 5909 5908 5906 5905 5904 5903 5902 5901 5900 5899 5898 5897 5896 5895 5894
5929 5930 5930 5928 5927 5925 5924 5923 5921 5920 5920 5922 5923 5923 5923 5923 5922 5921 5921 5921 5920 5919 5919 5918 5917 5917 5916 5915 5913 5912 5911 5910 5908 5907 5906 5905 5903 5902 5901 5900 5899 5898 5897 5896 5895 5894 5893 5893 5892
5927 5928 5927 5926 5923 5922 5922 5921 5919 5918 5918 5920 5921 5921 5921 5922 5921 5919 5919 5919 5918 5918 5917 5916 5915 5914 5913 5912 5911 5909 5908 5906 5905 5903 5902 5901 5899 5898 5897 5896 5895 5894 5894 5893 5892 5891 5890 5890 5889
5924 5926 5924 5922 5920 5919 5920 5918 5916 5915 5916 5918 5918 5918 5918 5919 5919 5918 5917 5916 5916 5916 5915 5914 5913 5912 5910 5909 5907 5906 5904 5902 5901 5899 5898 5896 5895 5894 5893 5892 5891 5890 5889 5889 5888 5887 5886 5886 5885
5921 5923 5921 5919 5917 5916 5916 5916 5914 5914 5914 5915 5915 5916 5915 5916 5917 5917 5916 5915 5914 5914 5913 5912 5910 5909 5907 5905 5903 5902 5900 5898 5896 5895 5893 5892 5890 5889 5888 5887 5886 5885 5884 5884 5883 5882 5882 5881 5880
5917 5919 5919 5916 5914 5913 5913 5913 5912 5912 5912 5912 5913 5913 5913 5913 5914 5915 5915 5914 5912 5911 5910 5908 5907 5905 5903 5901 5899 5897 5895 5893 5891 5890 5888 5887 5885 5884 5883 5882 5881 5880 5879 5879 5878 5877 5876 5876 5875
5912 5915 5914 5912 5910 5910 5911 5911 5910 5910 5910 5910 5910 5910 5910 5910 5911 5911 5912 5911 5909 5908 5906 5904 5903 5901 5899 5897 5894 5892 5890 5888 5887 5885 5883 5882 5880 5879 5878 5876 5875 5874 5874 5873 5872 5872 5871 5870 5870
5908 5910 5909 5908 5906 5906 5907 5907 5908 5907 5907 5907 5907 5906 5906 5907 5907 5907 5907 5907 5906 5904 5902 5900 5898 5896 5894 5892 5890 5888 5886 5884 5882 5880 5878 5877 5875 5874 5873 5872 5870 5869 5868 5868 5867 5866 5866 5865 5864
5904 5904 5904 5904 5903 5903 5904 5904 5904 5904 5904 5903 5903 5903 5903 5903 5903 5902 5903 5902 5901 5900 5897 5894 5893 5891 5889 5887 5884 5883 5881 5879 5877 5875 5873 5872 5870 5869 5867 5866 5865 5864 5863 5862 5862 5861 5860 5860 5858
5899 5899 5900 5901 5901 5900 5900 5900 5900 5900 5900 5899 5898 5898 5899 5899 5898 5898 5896 5895 5895 5894 5893 5890 5886 5884 5882 5880 5878 5877 5875 5874 5872 5870 5868 5867 5865 5863 5862 5861 5860 5859 5858 5857 5857 5856 5855 5855 5854
5894 5895 5896 5896 5896 5896 5895 5895 5895 5897 5895 5894 5894 5894 5893 5894 5893 5892 5891 5889 5887 5886 5884 5882 5880 5876 5874 5872 5871 5869 5869 5867 5865 5863 5862 5860 5858 5857 5856 5855 5854 5853 5852 5852 5852 5851 5850 5850 5849
5889 5890 5890 5891 5890 5890 5890 5890 5892 5891 5890 5890 5889 5889 5888 5887 5887 5886 5884 5882 5879 5876 5874 5873 5871 5867 5864 5862 5862 5860 5860 5859 5857 5856 5854 5853 5851 5850 5849 5848 5848 5847 5846 5846 5846 5845 5845 5845 5844
5884 5885 5885 5885 5885 5884 5884 5885 5887 5886 5886 5885 5884 5883 5882 5881 5880 5879 5878 5875 5869 5866 5864 5861 5859 5855 5853 5850 5851 5851 5851 5851 5850 5848 5847 5846 5844 5843 5843 5842 5842 5842 5841 5841 5841 5841 5841 5840 5840
5880 5881 5881 5881 5881 5881 5882 5882 5882 5882 5882 5881 5879 5878 5876 5875 5875 5872 5869 5866 5860 5856 5852 5848 5846 5842 5842 5839 5839 5840 5842 5843 5843 5842 5840 5839 5837 5836 5836 5836 5836 5836 5836 5836 5836 5836 5836 5836 5835
5876 5877 5877 5877 5877 5878 5878 5878 5877 5877 5876 5875 5874 5872 5870 5868 5866 5865 5862 5858 5852 5848 5844 5837 5836 5832 5829 5829 5829 5832 5834 5835 5834 5833 5833 5832 5831 5830 5829 5830 5830 5830 5830 5831 5831 5831 5831 5831 5831
5872 5873 5873 5873 5874 5874 5874 5874 5872 5872 5871 5870 5868 5866 5864 5862 5861 5857 5854 5851 5846 5843 5838 5833 5830 5826 5823 5820 5822 5824 5826 5827 5826 5827 5827 5826 5825 5823 5823 5823 5824 5824 5825 5825 5825 5826 5826 5826 5826
5869 5869 5869 5869 5870 5870 5870 5870 5869 5867 5866 5864 5862 5861 5859 5858 5855 5852 5849 5845 5842 5836 5830 5827 5826 5823 5821 5819 5820 5820 5820 5820 5820 5820 5820 5819 5818 5817 5817 5816 5817 5817 5818 5819 5819 5819 5820 5820 5820
5867 5866 5866 5866 5866 5866 5867 5866 5865 5862 5861 5859 5857 5856 5855 5853 5851 5848 5845 5842 5838 5832 5827 5824 5821 5819 5818 5817 5816 5814 5813 5813 5813 5812 5811 5810 5810 5810 5809 5809 5809 5810 5811 5811 5812 5812 5813 5813 5813
5864 5863 5863 5862 5862 5863 5862 5861 5860 5857 5855 5853 5851 5850 5849 5847 5845 5842 5839 5836 5832 5828 5824 5820 5817 5815 5813 5811 5810 5809 5807 5806 5805 5804 5803 5802 5801 5801 5801 5801 5801 5802 5802 5803 5803 5804 5805 5806 5806
5862 5861 5860 5859 5859 5859 5858 5856 5854 5852 5849 5847 5846 5844 5843 5840 5838 5835 5832 5829 5825 5821 5817 5814 5811 5809 5807 5804 5803 5801 5799 5798 5796 5795 5794 5793 5793 5792 5792 5792 5793 5793 5793 5794 5794 5795 5796 5797 5798
5860 5859 5858 5857 5856 5855 5853 5852 5851 5847 5844 5842 5841 5839 5837 5834 5831 5828 5825 5822 5818 5814 5810 5806 5803 5800 5798 5795 5793 5792 5790 5788 5787 5785 5784 5784 5783 5783 5782 5782 5783 5783 5783 5784 5785 5785 5786 5787 5789
5859 5857 5856 5854 5853 5851 5849 5848 5847 5843 5840 5838 5836 5834 5830 5827 5824 5821 5817 5813 5809 5805 5801 5797 5792 5789 5786 5783 5781 5779 5777 5776 5775 5774 5773 5772 5771 5771 5770 5771 5771 5772 5772 5773 5774 5775 5776 5777 5779
5857 5855 5853 5852 5850 5848 5846 5844 5842 5839 5837 5834 5831 5827 5823 5820 5816 5813 5809 5804 5799 5795 5790 5786 5781 5777 5773 5769 5766 5764 5761 5759 5758 5757 5757 5757 5757 5757 5757 5757 5758 5759 5760 5761 5762 5764 5765 5767 5768
5855 5853 5851 5849 5847 5844 5843 5840 5837 5834 5831 5827 5823 5819 5815 5811 5807 5802 5798 5793 5788 5783 5778 5772 5767 5762 5758 5754 5750 5747 5744 5742 5740 5739 5739 5739 5739 5740 5741 5742 5743 5744 5745 5747 5749 5751 5753 5755 5757
5853 5851 5848 5846 5844 5841 5838 5838 5833 5829 5824 5820 5815 5810 5805 5800 5795 5789 5784 5778 5773 5768 5762 5756 5751 5746 5741 5736 5732 5729 5725 5722 5721 5719 5718 5718 5719 5720 5722 5723 5725 5727 5729 5731 5734 5737 5739 5742 5744
5850 5848 5846 5844 5841 5838 5834 5834 5827 5823 5817 5812 5806 5801 5795 5789 5783 5777 5771 5764 5757 5750 5743 5737 5731 5725 5720 5715 5710 5707 5703 5701 5698 5697 5696 5696 5697 5698 5700 5702 5705 5707 5710 5713 5717 5720 5724 5727 5730